Hourly Weather Barsuchina

Today, 18 April, Sunday

Time Temperature Precipitation Wind Pressure Humidity
00:00 +8°C° 0 mm 3 mps 752 mmHg 91%
01:00 +8°C° 0 mm 3 mps 752 mmHg 91%
02:00 +6°C° 0 mm 4 mps 752 mmHg 92%
03:00 +7°C° 0 mm 3 mps 752 mmHg 93%
04:00 +5°C° 0 mm 3 mps 752 mmHg 94%
05:00 +5°C° 0 mm 3 mps 752 mmHg 94%
06:00 +7°C° 0 mm 3 mps 752 mmHg 87%
07:00 +7°C° 0 mm 4 mps 752 mmHg 79%
08:00 +8°C° 0 mm 5 mps 752 mmHg 71%
09:00 +10°C° 0 mm 5 mps 752 mmHg 63%
10:00 +12°C° 0 mm 5 mps 752 mmHg 55%
11:00 +14°C° 0 mm 5 mps 752 mmHg 46%
12:00 +14°C° 0 mm 5 mps 752 mmHg 43%
13:00 +15°C° 0 mm 5 mps 752 mmHg 40%
14:00 +15°C° 0 mm 5 mps 752 mmHg 37%
15:00 +15°C° 0 mm 5 mps 752 mmHg 40%
16:00 +15°C° 0 mm 4 mps 752 mmHg 43%
17:00 +15°C° 0 mm 4 mps 752 mmHg 47%
18:00 +13°C° 0 mm 4 mps 752 mmHg 53%
19:00 +11°C° 0 mm 3 mps 753 mmHg 60%
20:00 +9°C° 0 mm 3 mps 753 mmHg 66%
21:00 +8°C° 0 mm 3 mps 753 mmHg 69%
22:00 +8°C° 0 mm 3 mps 753 mmHg 71%
23:00 +7°C° 0 mm 3 mps 753 mmHg 74%

Tomorrow, 19 April, Monday

Time Temperature Precipitation Wind Pressure Humidity
00:00 +7°C° 0 mm 3 mps 753 mmHg 75%
01:00 +7°C° 0 mm 3 mps 753 mmHg 76%
02:00 +5°C° 0 mm 3 mps 753 mmHg 76%
03:00 +5°C° 0 mm 3 mps 753 mmHg 78%
04:00 +5°C° 0 mm 3 mps 754 mmHg 80%
05:00 +4°C° 0 mm 3 mps 754 mmHg 82%
06:00 +5°C° 0 mm 3 mps 754 mmHg 79%
07:00 +7°C° 0 mm 3 mps 754 mmHg 75%
08:00 +8°C° 0 mm 3 mps 754 mmHg 72%
09:00 +10°C° 0 mm 3 mps 754 mmHg 67%
10:00 +11°C° 0 mm 3 mps 754 mmHg 62%
11:00 +12°C° 0 mm 4 mps 754 mmHg 57%
12:00 +12°C° 0.1 mm 4 mps 754 mmHg 57%
13:00 +12°C° 0.1 mm 3 mps 753 mmHg 57%
14:00 +12°C° 0.1 mm 3 mps 753 mmHg 57%
15:00 +11°C° 0.1 mm 4 mps 753 mmHg 58%
16:00 +11°C° 0.1 mm 4 mps 753 mmHg 60%
17:00 +11°C° 0.1 mm 4 mps 753 mmHg 61%
18:00 +10°C° 0 mm 4 mps 753 mmHg 67%
19:00 +7°C° 0 mm 4 mps 753 mmHg 72%
20:00 +7°C° 0 mm 3 mps 753 mmHg 78%
21:00 +7°C° 0 mm 3 mps 753 mmHg 79%
22:00 +7°C° 0 mm 3 mps 753 mmHg 81%
23:00 +7°C° 0 mm 2 mps 753 mmHg 82%

Day after tomorrow, 20 April, Tuesday

Time Temperature Precipitation Wind Pressure Humidity
00:00 +7°C° 0 mm 2 mps 753 mmHg 83%
01:00 +7°C° 0 mm 2 mps 752 mmHg 83%
02:00 +6°C° 0 mm 2 mps 752 mmHg 84%
03:00 +6°C° 0.1 mm 2 mps 752 mmHg 84%
04:00 +6°C° 0.1 mm 2 mps 751 mmHg 84%
05:00 +6°C° 0.1 mm 2 mps 751 mmHg 84%
06:00 +5°C° 0 mm 3 mps 751 mmHg 80%
07:00 +5°C° 0 mm 3 mps 751 mmHg 76%
08:00 +6°C° 0 mm 4 mps 751 mmHg 72%
09:00 +6°C° 0.1 mm 4 mps 750 mmHg 69%
10:00 +6°C° 0.1 mm 4 mps 750 mmHg 66%
11:00 +7°C° 0.1 mm 4 mps 749 mmHg 63%
12:00 +7°C° 0.1 mm 4 mps 749 mmHg 61%
13:00 +7°C° 0.1 mm 4 mps 749 mmHg 58%
14:00 +7°C° 0.1 mm 4 mps 748 mmHg 55%
15:00 +7°C° 0 mm 4 mps 748 mmHg 56%
16:00 +8°C° 0 mm 3 mps 748 mmHg 56%
17:00 +8°C° 0 mm 3 mps 747 mmHg 57%
18:00 +7°C° 0 mm 3 mps 747 mmHg 62%
19:00 +7°C° 0 mm 3 mps 747 mmHg 67%
20:00 +6°C° 0 mm 2 mps 746 mmHg 72%
21:00 +5°C° 0 mm 2 mps 746 mmHg 76%
22:00 +4°C° 0 mm 2 mps 746 mmHg 79%
23:00 +4°C° 0 mm 2 mps 745 mmHg 83%

21 April, Wednesday

Time Temperature Precipitation Wind Pressure Humidity
00:00 +3°C° 0 mm 2 mps 745 mmHg 85%
01:00 +3°C° 0 mm 2 mps 744 mmHg 87%
02:00 +2°C° 0 mm 2 mps 744 mmHg 89%
03:00 +2°C° 0 mm 2 mps 743 mmHg 91%
04:00 +2°C° 0 mm 2 mps 743 mmHg 92%
05:00 +1°C° 0 mm 3 mps 742 mmHg 93%
06:00 +2°C° 0 mm 3 mps 742 mmHg 88%
07:00 +3°C° 0 mm 3 mps 742 mmHg 82%
08:00 +4°C° 0 mm 4 mps 742 mmHg 76%
09:00 +5°C° 0 mm 4 mps 741 mmHg 71%
10:00 +6°C° 0 mm 4 mps 741 mmHg 67%
11:00 +6°C° 0 mm 5 mps 741 mmHg 62%
12:00 +7°C° 0 mm 4 mps 741 mmHg 61%
13:00 +7°C° 0 mm 4 mps 741 mmHg 60%
14:00 +7°C° 0 mm 4 mps 741 mmHg 59%
15:00 +7°C° 0 mm 4 mps 741 mmHg 58%
16:00 +9°C° 0 mm 3 mps 741 mmHg 57%
17:00 +9°C° 0 mm 3 mps 742 mmHg 56%
18:00 +8°C° 0 mm 3 mps 742 mmHg 61%
19:00 +7°C° 0 mm 3 mps 742 mmHg 66%
20:00 +5°C° 0 mm 3 mps 742 mmHg 71%
21:00 +4°C° 0 mm 3 mps 743 mmHg 73%
22:00 +3°C° 0 mm 3 mps 743 mmHg 76%
23:00 +3°C° 0 mm 3 mps 743 mmHg 78%

22 April, Thursday

Time Temperature Precipitation Wind Pressure Humidity
00:00 +3°C° 0 mm 3 mps 743 mmHg 81%
01:00 +2°C° 0 mm 3 mps 744 mmHg 83%
02:00 +2°C° 0 mm 3 mps 744 mmHg 86%
03:00 +3°C° 0 mm 2 mps 744 mmHg 88%
04:00 +3°C° 0 mm 2 mps 744 mmHg 90%
05:00 +2°C° 0 mm 2 mps 745 mmHg 91%
06:00 +4°C° 0 mm 2 mps 745 mmHg 84%
07:00 +6°C° 0 mm 2 mps 745 mmHg 76%
08:00 +8°C° 0 mm 2 mps 746 mmHg 69%
09:00 +9°C° 0 mm 2 mps 746 mmHg 63%
10:00 +11°C° 0 mm 3 mps 746 mmHg 57%
11:00 +13°C° 0 mm 3 mps 746 mmHg 51%
12:00 +13°C° 0.2 mm 4 mps 746 mmHg 52%
13:00 +13°C° 0.2 mm 4 mps 746 mmHg 52%
14:00 +14°C° 0.2 mm 5 mps 746 mmHg 52%
15:00 +13°C° 0.4 mm 5 mps 746 mmHg 60%
16:00 +10°C° 0.4 mm 5 mps 746 mmHg 68%
17:00 +9°C° 0.4 mm 5 mps 747 mmHg 76%
18:00 +8°C° 0.2 mm 4 mps 747 mmHg 80%
19:00 +8°C° 0.2 mm 3 mps 748 mmHg 84%
20:00 +7°C° 0.2 mm 2 mps 748 mmHg 88%
21:00 +7°C° 0 mm 1 mps 748 mmHg 88%
22:00 +7°C° 0 mm 1 mps 748 mmHg 87%
23:00 +7°C° 0 mm 1 mps 748 mmHg 87%

23 April, Friday

Time Temperature Precipitation Wind Pressure Humidity
00:00 +6°C° 0 mm 1 mps 748 mmHg 88%
01:00 +6°C° 0 mm 1 mps 748 mmHg 89%
02:00 +5°C° 0 mm 1 mps 748 mmHg 90%
03:00 +4°C° 0 mm 2 mps 748 mmHg 90%
04:00 +4°C° 0 mm 2 mps 748 mmHg 90%
05:00 +5°C° 0 mm 2 mps 748 mmHg 90%
06:00 +3°C° 0.9 mm 3 mps 748 mmHg 89%
07:00 +3°C° 0.9 mm 3 mps 748 mmHg 89%
08:00 +3°C° 0.9 mm 3 mps 748 mmHg 89%
09:00 +3°C° 1 mm 4 mps 748 mmHg 90%
10:00 +3°C° 1 mm 4 mps 749 mmHg 91%
11:00 +3°C° 1 mm 4 mps 749 mmHg 92%
12:00 +4°C° 0.2 mm 4 mps 749 mmHg 84%
13:00 +6°C° 0.2 mm 4 mps 750 mmHg 77%
14:00 +7°C° 0.2 mm 4 mps 750 mmHg 70%
15:00 +6°C° 0.1 mm 4 mps 750 mmHg 70%
16:00 +6°C° 0.1 mm 4 mps 751 mmHg 71%
17:00 +6°C° 0.1 mm 4 mps 751 mmHg 71%
18:00 +5°C° 0 mm 4 mps 751 mmHg 75%
19:00 +4°C° 0 mm 3 mps 752 mmHg 79%
20:00 +3°C° 0 mm 3 mps 752 mmHg 83%
21:00 +2°C° 0 mm 3 mps 752 mmHg 84%
22:00 +2°C° 0 mm 3 mps 753 mmHg 86%
23:00 +1°C° 0 mm 3 mps 753 mmHg 87%
Show more